Regional Weather Roundup
Issued by NWS

Home | Current Version | Previous Version | Text Only | Print | Product List | Glossary On
Versions: 1 2 3 4 5 6 7 8 9 10 11 12 13 14 15 16 17 18 19 20 21 22 23 24 25 26 27 28 29 30 31 32 33 34 35 36 37 38 39 40 41 42 43 44 45 46 47 48 49 50
000
ASUS43 KLOT 200712
RWRIL

ILLINOIS REGIONAL WEATHER ROUNDUP
NATIONAL WEATHER SERVICE CHICAGO/ROMEOVILLE IL
100 AM CST FRI JAN 20 2017

NOTE: "FAIR" INDICATES FEW OR NO CLOUDS BELOW 12,000 FEET WITH NO
SIGNIFICANT WEATHER AND/OR OBSTRUCTIONS TO VISIBILITY.

* THESE STATIONS ARE NOT UNDER NWS QUALITY CONTROL. THEY ALSO MAY NOT
  REPORT WEATHER SUCH AS PRECIPITATION OR FOG.

ILZ001-002-007-009-015-016-024-200800-
NORTHWEST ILLINOIS

CITY           SKY/WX    TMP DP  RH WIND       PRES   REMARKS
MOLINE         FOG       37  35  92 E5        29.63R VSB 1/2 WCI  33
STERLING*      CLOUDY    36  36 100 E10       29.64F FOG     WCI  28
SAVANNA*       CLOUDY    37  37  99 E6        29.65S FOG     WCI  32
$$

ILZ003-004-008-010-011-017-018-200800-
NORTH CENTRAL ILLINOIS

CITY           SKY/WX    TMP DP  RH WIND       PRES   REMARKS
ROCKFORD       DRIZZLE   38  35  89 E10       29.67F FOG     WCI  31
FREEPORT*      CLOUDY    35  35 100 E7        29.67S FOG     WCI  29
ROCHELLE*      FOG       36  36 100 NE8       29.66F VSB 1   WCI  29
DE KALB*       CLOUDY    38  37  99 E8        29.65F FOG     WCI  32
$$

ILZ005-006-012>014-019>023-200800-
NORTHEAST ILLINOIS

CITY           SKY/WX    TMP DP  RH WIND       PRES   REMARKS
CHICAGO-OHARE  LGT RAIN  38  37  97 NE7       29.67S FOG     WCI  33
CHICAGO-MIDWAY LGT RAIN  37  37 100 E8G23     29.66F FOG     WCI  31
AURORA         CLOUDY    40  38  93 E9        29.64F FOG
LANSING*       RAIN      38  38 100 NE6       29.66F WCI  33
JOLIET*        DRIZZLE   40  39  98 NE7       29.65F
WAUKEGAN       LGT RAIN  37  37 100 NE9       29.68F FOG     WCI  30
DUPAGE AIRPORT LGT RAIN  39  36  89 E10       29.64F FOG     WCI  32
KANKAKEE*      LGT RAIN  40  39  97 E9        29.63F
WHEELING       LGT RAIN  37  36  96 E7        29.69F FOG     WCI  32
MORRIS*        DRIZZLE   38  37  97 E9        29.62F WCI  31
ROMEOVILLE*    LGT RAIN  38  38 100 E8        29.65F WCI  32
NORTHERLY ISL    N/A     35  34  96 NE7         N/A  WCI  29
$$

LMZ740>746-200800-
SOUTHERN LAKE MICHIGAN

STATION/POSITION SKY/WX   TEMP    WIND        PRES    VSBY  WAVE
                          AIR SEA DIR/SP/G                  HT/PER
                          (F)     (DEG/KT/KT) (MB)    (MI)  (FT/S)
HARRISON CRIB              37      90/ 11/ 12   N/A
BURNHAM HARBOR             35      40/  7/  8   N/A
CALUMET HARBOR             35      40/  7/ 11 1004.3F
BURNS HARBOR               35      70/  8/  9 1005.4F
MICHIGAN CITY              37      50/  8/  9   N/A
$$

ILZ025>027-034>036-040-047-049-050-058-095>099-200800-
WEST-CENTRAL ILLINOIS

CITY           SKY/WX    TMP DP  RH WIND       PRES   REMARKS
QUINCY         FOG       42  41  96 E3        29.60F VSB 1/4
GALESBURG*     FOG       37  37 100 CALM      29.62F VSB 1/4
MACOMB*        FOG       39  39 100 CALM      29.63F VSB 1/4
JACKSONVILLE*  RAIN      42  41  99 CALM      29.60F VSB 3/4
PITTSFIELD*    FOG       43  43 100 CALM      29.61F VSB 1/4
$$

ILZ028>032-037-038-041>044-048-051>054-059>061-200800-
CENTRAL ILLINOIS

CITY           SKY/WX    TMP DP  RH WIND       PRES   REMARKS
PONTIAC        CLOUDY    40  40 100 E9        29.62F FOG
BLOOMINGTON    FOG       39  39 100 NE3       29.62S VSB 1/4
DECATUR        LGT RAIN  43  33  68 CALM      29.60F
PEORIA         CLOUDY    40  40 100 E5        29.62F FOG
LACON*         CLOUDY    37  37 100 E5        29.62F FOG     WCI  34
LINCOLN*       TSTM      42  42 100 CALM      29.61F VSB 1
SPRINGFIELD    LGT RAIN  43  42  97 NE6       29.61F FOG
TAYLORVILLE    RAIN      43  42  99 CALM      29.60S
$$

ILZ033-039-045-046-055>057-062-063-200800-
EAST-CENTRAL ILLINOIS

CITY           SKY/WX    TMP DP  RH WIND       PRES   REMARKS
CHAMPAIGN      RAIN      44  42  93 E5        29.60F FOG
RANTOUL*       CLOUDY    43  43  99 NE6       29.60F FOG
MATTOON        RAIN      44  44 100 N7        29.59S FOG
PARIS*         HVY RAIN  46  46 100 CALM      29.59F
$$

ILZ079-100>102-200800-
SOUTHWEST ILLINOIS

CITY           SKY/WX    TMP DP  RH WIND       PRES   REMARKS
ALTON          CLOUDY    44  44 100 CALM      29.62R FOG
BELLEVILLE     CLOUDY    46  46 100 SW3       29.60S
CAHOKIA*       CLOUDY    47  46  97 CALM      29.61F
SPARTA*        CLOUDY    47  47  99 CALM      29.63S FOG
$$

ILZ064>066-069>071-074>076-080>082-084>086-088>090-092>094-200800-
SOUTH-CENTRAL ILLINOIS

CITY           SKY/WX    TMP DP  RH WIND       PRES   REMARKS
CARBONDALE     CLOUDY    49  49 100 CALM      29.62S FOG
CAIRO*         CLOUDY    53  53 100 SW9       29.66R FOG
EFFINGHAM*     RAIN      47  47 100 CALM      29.61F
MARION         CLOUDY    55  55 100 SW6       29.63S
MT. VERNON     CLOUDY    49  49 100 S3        29.61F
CENTRALIA*     CLOUDY    48  48 100 S5        29.60F FOG
SALEM*         LGT RAIN  48  47  95 CALM      29.60F
METROPOLIS*    CLOUDY    57  55  93 SW8G20    29.66R
$$

ILZ067-068-072-073-078-083-087-091-200800-
SOUTHEAST ILLINOIS

CITY           SKY/WX    TMP DP  RH WIND       PRES   REMARKS
LAWRENCEVILLE  RAIN      51  51 100 S7        29.60F FOG
FLORA*         LGT RAIN  51  50  98 W3        29.61S
FAIRFIELD*     LGT RAIN  52  52 100 CALM      29.61S
HARRISBURG*    CLOUDY    56  55  97 SW8       29.63S
ROBINSON*      RAIN      49  49 100 S7        29.60F
CARMI*         LGT RAIN  55  55 100 S6        29.61F
$$

ABBREVIATIONS USED IN REMARKS
   TC - TEMPERATURE IN CELSIUS
  WCI - WIND CHILL INDEX
   HX - HEAT INDEX
  VSB - VISIBILITY
$$





USA.gov is the U.S. government's official web portal to all federal, state and local government web resources and services.